Regional Weather Roundup
Issued by NWS Green Bay, WI

Home | Current Version | Previous Version | Text Only | Print | Product List | Glossary On
Versions: 1 2 3 4 5 6 7 8 9 10 11 12 13 14 15 16 17 18 19 20 21 22 23 24 25 26 27 28 29 30 31 32 33 34 35 36 37 38 39 40 41 42 43 44 45 46 47 48 49 50
128
ASUS43 KGRB 211011
RWRGRB

NORTH-CENTRAL AND NORTHEAST WISCONSIN REGIONAL WEATHER ROUNDUP
NATIONAL WEATHER SERVICE GREEN BAY WI
500 AM CDT MON AUG 21 2017

WIZ005-009-010>012-018-019-211100-
NORTH CENTRAL WISCONSIN

CITY           SKY/WX    TMP DP  RH WIND       PRES   REMARKS
IRONWOOD       PTCLDY    50  50 100 CALM      30.07R FOG
MANITOWISH WTR MOCLDY    52  52 100 CALM      30.08R FOG
ARBOR VITAE    FOG       59  58  96 CALM      30.09R VSB 1
EAGLE RIVER    PTCLDY    55  55 100 CALM      30.08R FOG
LAND O LAKES   CLEAR     54  54  99 CALM      30.09R FOG
RHINELANDER    MOCLDY    63  62  97 CALM      30.08R
PHILLIPS       CLOUDY    57  57 100 N3        30.07R
ANTIGO         CLOUDY    61  61 100 CALM      30.07R
TOMAHAWK         N/A     59  58  95 CALM      30.08R FOG
MERRILL        CLOUDY    63  63 100 N3        30.07R
$$

WIZ013-073-211100-
NORTHEAST WISCONSIN

CITY           SKY/WX    TMP DP  RH WIND       PRES   REMARKS
IRON MOUNTAIN  CLOUDY    67  63  87 CALM      30.04R
MARINETTE      CLEAR     67  66  97 SW3       30.03R
OCONTO         PTCLDY    62  62  97 CALM      30.03R
$$

WIZ017-030-035>037-045-211100-
CENTRAL WISCONSIN

CITY           SKY/WX    TMP DP  RH WIND       PRES   REMARKS
MEDFORD        MOCLDY    62  61  98 CALM      30.06R
WAUSAU         PTCLDY    65  65 100 CALM      30.04R
MOSINEE        FOG       63  63 100 CALM      30.06R VSB 1/4
MARSHFIELD     CLOUDY    65  63  93 CALM      30.04R
WISC RAPIDS    CLOUDY    66  65  96 CALM      30.05R
STEVENS POINT  CLOUDY    64  64 100 CALM      30.06R
WAUPACA        CLOUDY    66  65  97 W3        30.04S
SHAWANO        CLOUDY    66  65  94 CALM      30.04R FOG
CLINTONVILLE   MOCLDY    63  63 100 CALM      30.04R FOG
WAUTOMA        CLOUDY    60  60 100 CALM      30.04F
$$

WIZ038-039-048-051-211100-
FOX VALLEY

CITY           SKY/WX    TMP DP  RH WIND       PRES   REMARKS
NWS GREEN BAY  FOG       62  62 100 CALM      30.03R VSB 1/4
APPLETON       CLOUDY    63  63 100 CALM      30.03R
OSHKOSH        MOCLDY    67  64  90 W3        30.03S
FOND DU LAC    CLOUDY    65  63  93 S5        30.04S FOG
$$

WIZ022-050-052-211100-
EAST CENTRAL WISCONSIN

CITY           SKY/WX    TMP DP  RH WIND       PRES   REMARKS
EPHRAIM        FAIR      68  67  96 W5        30.02R
WASHINGTON ISL CLOUDY    66  66  98 CALM      30.01R
STURGEON BAY   CLOUDY    68  67  96 W3        30.04R
MANITOWOC      FOG       64  64 100 CALM      30.05R VSB 3/4
SHEBOYGAN      CLOUDY    61  61 100 CALM      30.04R FOG
$$

LMZ563-521-522-541>543-211100-
LAKESHORE

STATION/POSITION TIME  TEMP    WIND        PRES    VSBY  WAVE
                       AIR SEA DIR/SP/G                  HT/PER
                 (UTC) (F)     (DEG/KT/KT) (MB)    (MI)  (FT/S)
SHEBOYGAN LKSHOR 1000   68     330/  3/  3 1016.9R
KEWAUNEE LKSHORE 0942   66     200/  2/  2 1015.9R
NORTHPORT PIER   0940   70     260/  4/  6 1016.3R
N MID LAKE BUOY  0950   68 67  210/  6/  8 1016.7R         2/ 5
S GREEN BAY BUOY 1000   72 71  220/  6/  6 1016.6
SISTER BAY LKSHO 1003   71     310/  4/  5   N/A
MENOMINEE LKSHOR 0942   69     230/  4/  5 1016.2R
$$




USA.gov is the U.S. government's official web portal to all federal, state and local government web resources and services.